Location: Bennemühlen
(52.5740°N, 9.7135°E)
Time: 09:46:37
(UTC+00:00)

SeaSat 1 - Pass Details

Date: 19 May 2025
Orbit: 738 x 740 km, 108.0° (Epoch: 23 June)

Event Time Altitude Azimuth Distance (km) Brightness Sun altitude
Exits shadow 21:36:48 20° 174° (S) 1,654 3.7 -14.2°
Maximum altitude 21:40:00 53° 244° (WSW) 913 2.9 -14.4°
Drops below altitude 10° 21:44:49 10° 321° (NW) 2,260 6.2 -14.7°
Sets 21:47:08 0° 326° (NNW) 3,188 7.4 -14.8°
